This is the latest recevied weather packets stored in our database for station/object SV9TNF-51. If no packets are shown the sender has not sent any weather packets the latest 10 day(s).
| Time | Temp. | Humidity | Pressure | Rain* | Wind** | Luminosity | Snow |
|---|---|---|---|---|---|---|---|
| 1788281001 | 26.67° C | 62% | 1010.8 hPa | 0 mm | 5.36 m/s, 335° | - | - |
| 1788280702 | 27.22° C | 61% | 1010.8 hPa | 0 mm | 4.92 m/s, 91° | - | - |
| 1788280401 | 27.78° C | 59% | 1011.2 hPa | 0 mm | 8.05 m/s, 342° | - | - |
| 1788280101 | 27.78° C | 57% | 1011.2 hPa | 0 mm | 6.26 m/s, 335° | - | - |
| 1788279801 | 28.33° C | 56% | 1011.2 hPa | 0 mm | 4.02 m/s, 80° | - | - |
| 1788279501 | 28.33° C | 55% | 1011.2 hPa | 0 mm | 3.13 m/s, 97° | - | - |
| 1788279201 | 28.89° C | 55% | 1011.2 hPa | 0 mm | 3.13 m/s, 40° | - | - |
| 1788278901 | 29.44° C | 52% | 1011.2 hPa | 0 mm | 3.58 m/s, 343° | - | - |
| 1788278601 | 29.44° C | 52% | 1011.2 hPa | 0 mm | 1.79 m/s, 345° | - | - |
| 1788278301 | 29.44° C | 51% | 1011.2 hPa | 0 mm | 2.68 m/s, 67° | - | - |
| 1788278000 | 30.56° C | 49% | 1011.2 hPa | 0 mm | 4.02 m/s, 331° | - | - |
| 1788277700 | 30.56° C | 49% | 1011.2 hPa | 0 mm | 4.02 m/s, 134° | - | - |
| 1788277400 | 30.56° C | 49% | 1011.2 hPa | 0 mm | 3.58 m/s, 36° | - | - |
| 1788277100 | 31.11° C | 48% | 1011.2 hPa | 0 mm | 0.89 m/s, 109° | - | - |
| 1788276800 | 31.11° C | 47% | 1011.2 hPa | 0 mm | 2.68 m/s, 343° | - | - |
| 1788276500 | 30.56° C | 49% | 1011.2 hPa | 0 mm | 4.92 m/s, 334° | - | - |
| 1788276200 | 30.56° C | 48% | 1011.2 hPa | 0 mm | 3.58 m/s, 135° | - | - |
| 1788275900 | 31.67° C | 46% | 1011.2 hPa | 0 mm | 1.79 m/s, 129° | - | - |
| 1788275600 | 32.22° C | 43% | 1011.2 hPa | 0 mm | 1.79 m/s, 130° | - | - |
| 1788275300 | 31.67° C | 44% | 1011.2 hPa | 0 mm | 2.68 m/s, 316° | - | - |
| 1788274999 | 31.67° C | 45% | 1011.2 hPa | 0 mm | 1.34 m/s, 133° | - | - |
| 1788274699 | 31.67° C | 45% | 1011.2 hPa | 0 mm | 3.13 m/s, 130° | - | - |
| 1788274399 | 32.78° C | 41% | 1011.2 hPa | 0 mm | 1.79 m/s, 304° | - | - |
| 1788274099 | 31.67° C | 44% | 1011.2 hPa | 0 mm | 7.6 m/s, 116° | - | - |
| 1788273799 | 31.67° C | 44% | 1011.2 hPa | 0 mm | 9.39 m/s, 355° | - | - |
* Rain latest hour (hover to see other rain measurements)
** Current wind speed in m/s (hover to see current wind gust speed)